owner,sensor,date,latitude,longitude,air_pressure(mBar),qcFlag 
NDBC,ioos:station:NOAA.NDBC:SRST2:1,2015-09-01T00:00:00Z,29.6830,-94.0330,1016.5,1111122 
NDBC,ioos:station:NOAA.NDBC:SRST2:1,2015-09-01T01:00:00Z,29.6830,-94.0330,1015.9,1111122 
NDBC,ioos:station:NOAA.NDBC:SRST2:1,2015-09-01T02:00:00Z,29.6830,-94.0330,1016.1,1111122 
NDBC,ioos:station:NOAA.NDBC:SRST2:1,2015-09-01T03:00:00Z,29.6830,-94.0330,1016.8,1111122 
NDBC,ioos:station:NOAA.NDBC:SRST2:1,2015-09-01T04:00:00Z,29.6830,-94.0330,1017.1,1111122 
NDBC,ioos:station:NOAA.NDBC:SRST2:1,2015-09-01T05:00:00Z,29.6830,-94.0330,1017.4,1111122 
NDBC,ioos:station:NOAA.NDBC:SRST2:1,2015-09-01T06:00:00Z,29.6830,-94.0330,1017.8,1111122 
NDBC,ioos:station:NOAA.NDBC:SRST2:1,2015-09-01T07:00:00Z,29.6830,-94.0330,1017.5,1111122 
NDBC,ioos:station:NOAA.NDBC:SRST2:1,2015-09-01T10:00:00Z,29.6830,-94.0330,1016.1,1111122 
NDBC,ioos:station:NOAA.NDBC:SRST2:1,2015-09-01T11:00:00Z,29.6830,-94.0330,1016.4,1111122 
NDBC,ioos:station:NOAA.NDBC:SRST2:1,2015-09-01T12:00:00Z,29.6830,-94.0330,1017.2,1111122 
NDBC,ioos:station:NOAA.NDBC:SRST2:1,2015-09-01T13:00:00Z,29.6830,-94.0330,1017.5,1111122 
NDBC,ioos:station:NOAA.NDBC:SRST2:1,2015-09-01T14:00:00Z,29.6830,-94.0330,1018.1,1111122 
NDBC,ioos:station:NOAA.NDBC:SRST2:1,2015-09-01T16:00:00Z,29.6830,-94.0330,1018.6,1111122 
NDBC,ioos:station:NOAA.NDBC:SRST2:1,2015-09-01T17:00:00Z,29.6830,-94.0330,1019.0,1111122 
NDBC,ioos:station:NOAA.NDBC:SRST2:1,2015-09-01T18:00:00Z,29.6830,-94.0330,1019.0,1111122 
NDBC,ioos:station:NOAA.NDBC:SRST2:1,2015-09-01T19:00:00Z,29.6830,-94.0330,1018.6,1111122 
NDBC,ioos:station:NOAA.NDBC:SRST2:1,2015-09-01T20:00:00Z,29.6830,-94.0330,1017.9,1111122 
NDBC,ioos:station:NOAA.NDBC:SRST2:1,2015-09-01T21:00:00Z,29.6830,-94.0330,1017.8,1111122 
NDBC,ioos:station:NOAA.NDBC:SRST2:1,2015-09-01T22:00:00Z,29.6830,-94.0330,1017.8,1111122 
NDBC,ioos:station:NOAA.NDBC:SRST2:1,2015-09-01T23:00:00Z,29.6830,-94.0330,1016.7,1111122 
NDBC,ioos:station:NOAA.NDBC:SRST2:1,2015-09-02T00:00:00Z,29.6830,-94.0330,1016.8,1111122 
NDBC,ioos:station:NOAA.NDBC:SRST2:1,2015-09-02T01:00:00Z,29.6830,-94.0330,1017.1,1111122 
NDBC,ioos:station:NOAA.NDBC:SRST2:1,2015-09-02T02:00:00Z,29.6830,-94.0330,1016.9,1111122 
NDBC,ioos:station:NOAA.NDBC:SRST2:1,2015-09-02T03:00:00Z,29.6830,-94.0330,1017.4,1111122 
NDBC,ioos:station:NOAA.NDBC:SRST2:1,2015-09-02T04:00:00Z,29.6830,-94.0330,1017.8,1111122 
NDBC,ioos:station:NOAA.NDBC:SRST2:1,2015-09-02T05:00:00Z,29.6830,-94.0330,1018.0,1111122 
NDBC,ioos:station:NOAA.NDBC:SRST2:1,2015-09-02T06:00:00Z,29.6830,-94.0330,1018.1,1111122 
NDBC,ioos:station:NOAA.NDBC:SRST2:1,2015-09-02T07:00:00Z,29.6830,-94.0330,1017.7,1111122 
NDBC,ioos:station:NOAA.NDBC:SRST2:1,2015-09-02T09:00:00Z,29.6830,-94.0330,1017.4,1111122 
NDBC,ioos:station:NOAA.NDBC:SRST2:1,2015-09-02T10:00:00Z,29.6830,-94.0330,1017.2,1111122 
NDBC,ioos:station:NOAA.NDBC:SRST2:1,2015-09-02T11:00:00Z,29.6830,-94.0330,1017.1,1111122 
NDBC,ioos:station:NOAA.NDBC:SRST2:1,2015-09-02T12:00:00Z,29.6830,-94.0330,1017.6,1111122 
NDBC,ioos:station:NOAA.NDBC:SRST2:1,2015-09-02T13:00:00Z,29.6830,-94.0330,1017.6,1111122 
NDBC,ioos:station:NOAA.NDBC:SRST2:1,2015-09-02T15:00:00Z,29.6830,-94.0330,1018.0,1111122 
NDBC,ioos:station:NOAA.NDBC:SRST2:1,2015-09-02T16:00:00Z,29.6830,-94.0330,1018.1,1111122 
NDBC,ioos:station:NOAA.NDBC:SRST2:1,2015-09-02T17:00:00Z,29.6830,-94.0330,1018.2,1111122 
NDBC,ioos:station:NOAA.NDBC:SRST2:1,2015-09-02T18:00:00Z,29.6830,-94.0330,1017.7,1111122 
NDBC,ioos:station:NOAA.NDBC:SRST2:1,2015-09-02T19:00:00Z,29.6830,-94.0330,1017.2,1111122 
NDBC,ioos:station:NOAA.NDBC:SRST2:1,2015-09-02T20:00:00Z,29.6830,-94.0330,1016.6,1111122 
NDBC,ioos:station:NOAA.NDBC:SRST2:1,2015-09-02T21:00:00Z,29.6830,-94.0330,1016.2,1111122 
NDBC,ioos:station:NOAA.NDBC:SRST2:1,2015-09-02T22:00:00Z,29.6830,-94.0330,1015.1,1111122 
NDBC,ioos:station:NOAA.NDBC:SRST2:1,2015-09-03T01:00:00Z,29.6830,-94.0330,1014.2,1111122 
NDBC,ioos:station:NOAA.NDBC:SRST2:1,2015-09-03T03:00:00Z,29.6830,-94.0330,1015.0,1111122 
NDBC,ioos:station:NOAA.NDBC:SRST2:1,2015-09-03T04:00:00Z,29.6830,-94.0330,1014.9,1111122 
NDBC,ioos:station:NOAA.NDBC:SRST2:1,2015-09-03T05:00:00Z,29.6830,-94.0330,1014.8,1111122 
NDBC,ioos:station:NOAA.NDBC:SRST2:1,2015-09-03T06:00:00Z,29.6830,-94.0330,1014.6,1111122 
NDBC,ioos:station:NOAA.NDBC:SRST2:1,2015-09-03T08:00:00Z,29.6830,-94.0330,1014.2,1111122 
NDBC,ioos:station:NOAA.NDBC:SRST2:1,2015-09-03T09:00:00Z,29.6830,-94.0330,1014.5,1111122 
NDBC,ioos:station:NOAA.NDBC:SRST2:1,2015-09-03T10:00:00Z,29.6830,-94.0330,1014.3,1111122 
NDBC,ioos:station:NOAA.NDBC:SRST2:1,2015-09-03T11:00:00Z,29.6830,-94.0330,1014.1,1111122 
NDBC,ioos:station:NOAA.NDBC:SRST2:1,2015-09-03T12:00:00Z,29.6830,-94.0330,1014.5,1111122 
NDBC,ioos:station:NOAA.NDBC:SRST2:1,2015-09-03T13:00:00Z,29.6830,-94.0330,1015.2,1111122 
NDBC,ioos:station:NOAA.NDBC:SRST2:1,2015-09-03T14:00:00Z,29.6830,-94.0330,1015.2,1111122 
NDBC,ioos:station:NOAA.NDBC:SRST2:1,2015-09-03T15:00:00Z,29.6830,-94.0330,1015.4,1111122 
NDBC,ioos:station:NOAA.NDBC:SRST2:1,2015-09-03T16:00:00Z,29.6830,-94.0330,1016.1,1111122 
NDBC,ioos:station:NOAA.NDBC:SRST2:1,2015-09-03T17:00:00Z,29.6830,-94.0330,1015.6,1111122 
NDBC,ioos:station:NOAA.NDBC:SRST2:1,2015-09-03T18:00:00Z,29.6830,-94.0330,1015.0,1111122 
NDBC,ioos:station:NOAA.NDBC:SRST2:1,2015-09-03T19:00:00Z,29.6830,-94.0330,1014.6,1111122 
NDBC,ioos:station:NOAA.NDBC:SRST2:1,2015-09-03T20:00:00Z,29.6830,-94.0330,1013.7,1111122 
NDBC,ioos:station:NOAA.NDBC:SRST2:1,2015-09-03T21:00:00Z,29.6830,-94.0330,1013.3,1111122 
NDBC,ioos:station:NOAA.NDBC:SRST2:1,2015-09-04T00:00:00Z,29.6830,-94.0330,1012.1,1111122 
NDBC,ioos:station:NOAA.NDBC:SRST2:1,2015-09-04T03:00:00Z,29.6830,-94.0330,1013.3,1111122 
NDBC,ioos:station:NOAA.NDBC:SRST2:1,2015-09-04T04:00:00Z,29.6830,-94.0330,1013.4,1111122 
NDBC,ioos:station:NOAA.NDBC:SRST2:1,2015-09-04T05:00:00Z,29.6830,-94.0330,1013.1,1111122 
NDBC,ioos:station:NOAA.NDBC:SRST2:1,2015-09-04T09:00:00Z,29.6830,-94.0330,1013.2,1111122 
NDBC,ioos:station:NOAA.NDBC:SRST2:1,2015-09-04T10:00:00Z,29.6830,-94.0330,1013.6,1111122 
NDBC,ioos:station:NOAA.NDBC:SRST2:1,2015-09-04T11:00:00Z,29.6830,-94.0330,1014.0,1111122 
NDBC,ioos:station:NOAA.NDBC:SRST2:1,2015-09-04T12:00:00Z,29.6830,-94.0330,1014.3,1111122 
NDBC,ioos:station:NOAA.NDBC:SRST2:1,2015-09-04T13:00:00Z,29.6830,-94.0330,1015.0,1111122 
NDBC,ioos:station:NOAA.NDBC:SRST2:1,2015-09-04T14:00:00Z,29.6830,-94.0330,1015.5,1111122 
NDBC,ioos:station:NOAA.NDBC:SRST2:1,2015-09-04T15:00:00Z,29.6830,-94.0330,1015.6,1111122 
NDBC,ioos:station:NOAA.NDBC:SRST2:1,2015-09-04T16:00:00Z,29.6830,-94.0330,1015.9,1111122 
NDBC,ioos:station:NOAA.NDBC:SRST2:1,2015-09-04T17:00:00Z,29.6830,-94.0330,1015.8,1111122 
NDBC,ioos:station:NOAA.NDBC:SRST2:1,2015-09-04T18:00:00Z,29.6830,-94.0330,1015.3,1111122 
NDBC,ioos:station:NOAA.NDBC:SRST2:1,2015-09-04T19:00:00Z,29.6830,-94.0330,1014.9,1111122 
NDBC,ioos:station:NOAA.NDBC:SRST2:1,2015-09-04T20:00:00Z,29.6830,-94.0330,1014.7,1111122 
NDBC,ioos:station:NOAA.NDBC:SRST2:1,2015-09-04T21:00:00Z,29.6830,-94.0330,1014.5,1111122 
NDBC,ioos:station:NOAA.NDBC:SRST2:1,2015-09-04T22:00:00Z,29.6830,-94.0330,1014.3,1111122 
NDBC,ioos:station:NOAA.NDBC:SRST2:1,2015-09-04T23:00:00Z,29.6830,-94.0330,1014.6,1111122 
NDBC,ioos:station:NOAA.NDBC:SRST2:1,2015-09-05T00:00:00Z,29.6830,-94.0330,1014.5,1111122 
NDBC,ioos:station:NOAA.NDBC:SRST2:1,2015-09-05T02:00:00Z,29.6830,-94.0330,1015.0,1111122 
NDBC,ioos:station:NOAA.NDBC:SRST2:1,2015-09-05T07:00:00Z,29.6830,-94.0330,1015.0,1111122 
NDBC,ioos:station:NOAA.NDBC:SRST2:1,2015-09-05T10:00:00Z,29.6830,-94.0330,1015.8,1111122 
NDBC,ioos:station:NOAA.NDBC:SRST2:1,2015-09-05T11:00:00Z,29.6830,-94.0330,1015.9,1111122 
NDBC,ioos:station:NOAA.NDBC:SRST2:1,2015-09-05T12:00:00Z,29.6830,-94.0330,1016.6,1111122 
NDBC,ioos:station:NOAA.NDBC:SRST2:1,2015-09-05T13:00:00Z,29.6830,-94.0330,1017.0,1111122 
NDBC,ioos:station:NOAA.NDBC:SRST2:1,2015-09-05T14:00:00Z,29.6830,-94.0330,1017.5,1111122 
NDBC,ioos:station:NOAA.NDBC:SRST2:1,2015-09-05T15:00:00Z,29.6830,-94.0330,1017.9,1111122 
NDBC,ioos:station:NOAA.NDBC:SRST2:1,2015-09-05T16:00:00Z,29.6830,-94.0330,1018.3,1111122 
NDBC,ioos:station:NOAA.NDBC:SRST2:1,2015-09-05T17:00:00Z,29.6830,-94.0330,1017.6,1111122 
NDBC,ioos:station:NOAA.NDBC:SRST2:1,2015-09-05T18:00:00Z,29.6830,-94.0330,1017.1,1111122 
NDBC,ioos:station:NOAA.NDBC:SRST2:1,2015-09-05T19:00:00Z,29.6830,-94.0330,1017.2,1111122 
NDBC,ioos:station:NOAA.NDBC:SRST2:1,2015-09-05T20:00:00Z,29.6830,-94.0330,1016.8,1111122 
NDBC,ioos:station:NOAA.NDBC:SRST2:1,2015-09-05T21:00:00Z,29.6830,-94.0330,1016.4,1111122 
NDBC,ioos:station:NOAA.NDBC:SRST2:1,2015-09-05T22:00:00Z,29.6830,-94.0330,1015.4,1111122 
NDBC,ioos:station:NOAA.NDBC:SRST2:1,2015-09-06T00:00:00Z,29.6830,-94.0330,1015.6,1111122 
NDBC,ioos:station:NOAA.NDBC:SRST2:1,2015-09-06T01:00:00Z,29.6830,-94.0330,1015.3,1111122 
NDBC,ioos:station:NOAA.NDBC:SRST2:1,2015-09-06T02:00:00Z,29.6830,-94.0330,1015.6,1111122 
NDBC,ioos:station:NOAA.NDBC:SRST2:1,2015-09-06T03:00:00Z,29.6830,-94.0330,1016.3,1111122 
NDBC,ioos:station:NOAA.NDBC:SRST2:1,2015-09-06T04:00:00Z,29.6830,-94.0330,1016.4,1111122 
NDBC,ioos:station:NOAA.NDBC:SRST2:1,2015-09-06T06:00:00Z,29.6830,-94.0330,1015.7,1111122 
NDBC,ioos:station:NOAA.NDBC:SRST2:1,2015-09-06T09:00:00Z,29.6830,-94.0330,1015.3,1111122 
NDBC,ioos:station:NOAA.NDBC:SRST2:1,2015-09-06T10:00:00Z,29.6830,-94.0330,1015.8,1111122 
NDBC,ioos:station:NOAA.NDBC:SRST2:1,2015-09-06T11:00:00Z,29.6830,-94.0330,1015.8,1111122 
NDBC,ioos:station:NOAA.NDBC:SRST2:1,2015-09-06T12:00:00Z,29.6830,-94.0330,1016.3,1111122 
NDBC,ioos:station:NOAA.NDBC:SRST2:1,2015-09-06T13:00:00Z,29.6830,-94.0330,1017.0,1111122 
NDBC,ioos:station:NOAA.NDBC:SRST2:1,2015-09-06T14:00:00Z,29.6830,-94.0330,1017.1,1111122 
NDBC,ioos:station:NOAA.NDBC:SRST2:1,2015-09-06T15:00:00Z,29.6830,-94.0330,1017.6,1111122 
NDBC,ioos:station:NOAA.NDBC:SRST2:1,2015-09-06T16:00:00Z,29.6830,-94.0330,1017.6,1111122 
NDBC,ioos:station:NOAA.NDBC:SRST2:1,2015-09-06T17:00:00Z,29.6830,-94.0330,1017.6,1111122 
NDBC,ioos:station:NOAA.NDBC:SRST2:1,2015-09-06T18:00:00Z,29.6830,-94.0330,1017.1,1111122 
NDBC,ioos:station:NOAA.NDBC:SRST2:1,2015-09-06T19:00:00Z,29.6830,-94.0330,1016.7,1111122 
NDBC,ioos:station:NOAA.NDBC:SRST2:1,2015-09-06T20:00:00Z,29.6830,-94.0330,1016.3,1111122 
NDBC,ioos:station:NOAA.NDBC:SRST2:1,2015-09-06T21:00:00Z,29.6830,-94.0330,1014.7,1111122 
NDBC,ioos:station:NOAA.NDBC:SRST2:1,2015-09-06T22:00:00Z,29.6830,-94.0330,1014.1,1111122 
NDBC,ioos:station:NOAA.NDBC:SRST2:1,2015-09-06T23:00:00Z,29.6830,-94.0330,1013.7,1111122 
NDBC,ioos:station:NOAA.NDBC:SRST2:1,2015-09-07T01:00:00Z,29.6830,-94.0330,1014.4,1111122 
NDBC,ioos:station:NOAA.NDBC:SRST2:1,2015-09-07T02:00:00Z,29.6830,-94.0330,1014.6,1111122 
NDBC,ioos:station:NOAA.NDBC:SRST2:1,2015-09-07T03:00:00Z,29.6830,-94.0330,1015.7,1111122 
NDBC,ioos:station:NOAA.NDBC:SRST2:1,2015-09-07T04:00:00Z,29.6830,-94.0330,1015.9,1111122 
NDBC,ioos:station:NOAA.NDBC:SRST2:1,2015-09-07T05:00:00Z,29.6830,-94.0330,1015.1,1111122 
NDBC,ioos:station:NOAA.NDBC:SRST2:1,2015-09-07T06:00:00Z,29.6830,-94.0330,1014.8,1111122 
NDBC,ioos:station:NOAA.NDBC:SRST2:1,2015-09-07T08:00:00Z,29.6830,-94.0330,1014.4,1111122 
NDBC,ioos:station:NOAA.NDBC:SRST2:1,2015-09-07T10:00:00Z,29.6830,-94.0330,1014.7,1111122 
NDBC,ioos:station:NOAA.NDBC:SRST2:1,2015-09-07T13:00:00Z,29.6830,-94.0330,1015.9,1111122 
NDBC,ioos:station:NOAA.NDBC:SRST2:1,2015-09-07T14:00:00Z,29.6830,-94.0330,1016.2,1111122 
NDBC,ioos:station:NOAA.NDBC:SRST2:1,2015-09-07T15:00:00Z,29.6830,-94.0330,1016.4,1111122 
NDBC,ioos:station:NOAA.NDBC:SRST2:1,2015-09-07T16:00:00Z,29.6830,-94.0330,1016.9,1111122 
NDBC,ioos:station:NOAA.NDBC:SRST2:1,2015-09-07T17:00:00Z,29.6830,-94.0330,1017.2,1111122 
NDBC,ioos:station:NOAA.NDBC:SRST2:1,2015-09-07T18:00:00Z,29.6830,-94.0330,1016.4,1111122 
NDBC,ioos:station:NOAA.NDBC:SRST2:1,2015-09-07T20:00:00Z,29.6830,-94.0330,1014.6,1111122 
NDBC,ioos:station:NOAA.NDBC:SRST2:1,2015-09-07T21:00:00Z,29.6830,-94.0330,1013.9,1111122 
NDBC,ioos:station:NOAA.NDBC:SRST2:1,2015-09-07T22:00:00Z,29.6830,-94.0330,1013.2,1111122 
NDBC,ioos:station:NOAA.NDBC:SRST2:1,2015-09-07T23:00:00Z,29.6830,-94.0330,1013.2,1111122 
NDBC,ioos:station:NOAA.NDBC:SRST2:1,2015-09-08T00:00:00Z,29.6830,-94.0330,1013.6,1111122 
NDBC,ioos:station:NOAA.NDBC:SRST2:1,2015-09-08T01:00:00Z,29.6830,-94.0330,1013.7,1111122 
NDBC,ioos:station:NOAA.NDBC:SRST2:1,2015-09-08T02:00:00Z,29.6830,-94.0330,1014.2,1111122 
NDBC,ioos:station:NOAA.NDBC:SRST2:1,2015-09-08T03:00:00Z,29.6830,-94.0330,1014.8,1111122 
NDBC,ioos:station:NOAA.NDBC:SRST2:1,2015-09-08T04:00:00Z,29.6830,-94.0330,1014.7,1111122 
NDBC,ioos:station:NOAA.NDBC:SRST2:1,2015-09-08T05:00:00Z,29.6830,-94.0330,1014.5,1111122 
NDBC,ioos:station:NOAA.NDBC:SRST2:1,2015-09-08T06:00:00Z,29.6830,-94.0330,1014.6,1111122 
NDBC,ioos:station:NOAA.NDBC:SRST2:1,2015-09-08T07:00:00Z,29.6830,-94.0330,1014.5,1111122 
NDBC,ioos:station:NOAA.NDBC:SRST2:1,2015-09-08T08:00:00Z,29.6830,-94.0330,1014.0,1111122 
NDBC,ioos:station:NOAA.NDBC:SRST2:1,2015-09-08T09:00:00Z,29.6830,-94.0330,1014.0,1111122 
NDBC,ioos:station:NOAA.NDBC:SRST2:1,2015-09-08T10:00:00Z,29.6830,-94.0330,1014.0,1111122 
NDBC,ioos:station:NOAA.NDBC:SRST2:1,2015-09-08T11:00:00Z,29.6830,-94.0330,1014.0,1111122 
NDBC,ioos:station:NOAA.NDBC:SRST2:1,2015-09-08T12:00:00Z,29.6830,-94.0330,1014.3,1111122 
NDBC,ioos:station:NOAA.NDBC:SRST2:1,2015-09-08T13:00:00Z,29.6830,-94.0330,1014.6,1111122 
NDBC,ioos:station:NOAA.NDBC:SRST2:1,2015-09-08T14:00:00Z,29.6830,-94.0330,1014.6,1111122 
NDBC,ioos:station:NOAA.NDBC:SRST2:1,2015-09-08T15:00:00Z,29.6830,-94.0330,1014.9,1111122 
NDBC,ioos:station:NOAA.NDBC:SRST2:1,2015-09-08T16:00:00Z,29.6830,-94.0330,1015.1,1111122 
NDBC,ioos:station:NOAA.NDBC:SRST2:1,2015-09-08T17:00:00Z,29.6830,-94.0330,1014.8,1111122 
NDBC,ioos:station:NOAA.NDBC:SRST2:1,2015-09-08T18:00:00Z,29.6830,-94.0330,1014.5,1111122 
NDBC,ioos:station:NOAA.NDBC:SRST2:1,2015-09-08T19:00:00Z,29.6830,-94.0330,1014.1,1111122 
NDBC,ioos:station:NOAA.NDBC:SRST2:1,2015-09-08T20:00:00Z,29.6830,-94.0330,1013.3,1111122 
NDBC,ioos:station:NOAA.NDBC:SRST2:1,2015-09-08T21:00:00Z,29.6830,-94.0330,1012.3,1111122 
NDBC,ioos:station:NOAA.NDBC:SRST2:1,2015-09-08T22:00:00Z,29.6830,-94.0330,1012.1,1111122 
NDBC,ioos:station:NOAA.NDBC:SRST2:1,2015-09-08T23:00:00Z,29.6830,-94.0330,1012.1,1111122 
NDBC,ioos:station:NOAA.NDBC:SRST2:1,2015-09-09T01:00:00Z,29.6830,-94.0330,1012.1,1111122 
NDBC,ioos:station:NOAA.NDBC:SRST2:1,2015-09-09T02:00:00Z,29.6830,-94.0330,1012.4,1111122 
NDBC,ioos:station:NOAA.NDBC:SRST2:1,2015-09-09T03:00:00Z,29.6830,-94.0330,1013.2,1111122 
NDBC,ioos:station:NOAA.NDBC:SRST2:1,2015-09-09T04:00:00Z,29.6830,-94.0330,1013.5,1111122 
NDBC,ioos:station:NOAA.NDBC:SRST2:1,2015-09-09T05:00:00Z,29.6830,-94.0330,1013.4,1111122 
NDBC,ioos:station:NOAA.NDBC:SRST2:1,2015-09-09T06:00:00Z,29.6830,-94.0330,1013.3,1111122 
NDBC,ioos:station:NOAA.NDBC:SRST2:1,2015-09-09T07:00:00Z,29.6830,-94.0330,1013.3,1111122 
NDBC,ioos:station:NOAA.NDBC:SRST2:1,2015-09-09T08:00:00Z,29.6830,-94.0330,1012.8,1111122 
NDBC,ioos:station:NOAA.NDBC:SRST2:1,2015-09-09T09:00:00Z,29.6830,-94.0330,1012.6,1111122 
NDBC,ioos:station:NOAA.NDBC:SRST2:1,2015-09-09T10:00:00Z,29.6830,-94.0330,1012.6,1111122 
NDBC,ioos:station:NOAA.NDBC:SRST2:1,2015-09-09T11:00:00Z,29.6830,-94.0330,1012.8,1111122 
NDBC,ioos:station:NOAA.NDBC:SRST2:1,2015-09-09T12:00:00Z,29.6830,-94.0330,1013.2,1111122 
NDBC,ioos:station:NOAA.NDBC:SRST2:1,2015-09-09T13:00:00Z,29.6830,-94.0330,1013.8,1111122 
NDBC,ioos:station:NOAA.NDBC:SRST2:1,2015-09-09T14:00:00Z,29.6830,-94.0330,1014.5,1111122 
NDBC,ioos:station:NOAA.NDBC:SRST2:1,2015-09-09T15:00:00Z,29.6830,-94.0330,1014.8,1111122 
NDBC,ioos:station:NOAA.NDBC:SRST2:1,2015-09-09T16:00:00Z,29.6830,-94.0330,1014.9,1111122 
NDBC,ioos:station:NOAA.NDBC:SRST2:1,2015-09-09T17:00:00Z,29.6830,-94.0330,1015.1,1111122 
NDBC,ioos:station:NOAA.NDBC:SRST2:1,2015-09-09T18:00:00Z,29.6830,-94.0330,1014.7,1111122 
NDBC,ioos:station:NOAA.NDBC:SRST2:1,2015-09-09T19:00:00Z,29.6830,-94.0330,1013.8,1111122 
NDBC,ioos:station:NOAA.NDBC:SRST2:1,2015-09-09T20:00:00Z,29.6830,-94.0330,1013.4,1111122 
NDBC,ioos:station:NOAA.NDBC:SRST2:1,2015-09-09T21:00:00Z,29.6830,-94.0330,1012.6,1111122 
NDBC,ioos:station:NOAA.NDBC:SRST2:1,2015-09-09T22:00:00Z,29.6830,-94.0330,1012.1,1111122 
NDBC,ioos:station:NOAA.NDBC:SRST2:1,2015-09-09T23:00:00Z,29.6830,-94.0330,1012.2,1111122 
NDBC,ioos:station:NOAA.NDBC:SRST2:1,2015-09-10T00:00:00Z,29.6830,-94.0330,1012.1,1111122 
NDBC,ioos:station:NOAA.NDBC:SRST2:1,2015-09-10T02:00:00Z,29.6830,-94.0330,1013.3,1111122 
NDBC,ioos:station:NOAA.NDBC:SRST2:1,2015-09-10T03:00:00Z,29.6830,-94.0330,1013.9,1111122 
NDBC,ioos:station:NOAA.NDBC:SRST2:1,2015-09-10T04:00:00Z,29.6830,-94.0330,1014.2,1111122 
NDBC,ioos:station:NOAA.NDBC:SRST2:1,2015-09-10T05:00:00Z,29.6830,-94.0330,1014.2,1111122 
NDBC,ioos:station:NOAA.NDBC:SRST2:1,2015-09-10T06:00:00Z,29.6830,-94.0330,1014.0,1111122 
NDBC,ioos:station:NOAA.NDBC:SRST2:1,2015-09-10T08:00:00Z,29.6830,-94.0330,1013.7,1111122 
NDBC,ioos:station:NOAA.NDBC:SRST2:1,2015-09-10T09:00:00Z,29.6830,-94.0330,1013.7,1111122 
NDBC,ioos:station:NOAA.NDBC:SRST2:1,2015-09-10T10:00:00Z,29.6830,-94.0330,1013.6,1111122 
NDBC,ioos:station:NOAA.NDBC:SRST2:1,2015-09-10T11:00:00Z,29.6830,-94.0330,1013.9,1111122 
NDBC,ioos:station:NOAA.NDBC:SRST2:1,2015-09-10T12:00:00Z,29.6830,-94.0330,1014.3,1111122 
NDBC,ioos:station:NOAA.NDBC:SRST2:1,2015-09-10T13:00:00Z,29.6830,-94.0330,1014.8,1111122 
NDBC,ioos:station:NOAA.NDBC:SRST2:1,2015-09-10T14:00:00Z,29.6830,-94.0330,1015.0,1111122 
NDBC,ioos:station:NOAA.NDBC:SRST2:1,2015-09-10T15:00:00Z,29.6830,-94.0330,1015.4,1111122 
NDBC,ioos:station:NOAA.NDBC:SRST2:1,2015-09-10T16:00:00Z,29.6830,-94.0330,1014.9,1111122 
NDBC,ioos:station:NOAA.NDBC:SRST2:1,2015-09-10T17:00:00Z,29.6830,-94.0330,1015.7,1111122 
NDBC,ioos:station:NOAA.NDBC:SRST2:1,2015-09-10T18:00:00Z,29.6830,-94.0330,1015.6,1111122 
NDBC,ioos:station:NOAA.NDBC:SRST2:1,2015-09-10T19:00:00Z,29.6830,-94.0330,1015.0,1111122 
NDBC,ioos:station:NOAA.NDBC:SRST2:1,2015-09-10T21:00:00Z,29.6830,-94.0330,1014.3,1111122 
NDBC,ioos:station:NOAA.NDBC:SRST2:1,2015-09-10T23:00:00Z,29.6830,-94.0330,1013.5,1111122 
NDBC,ioos:station:NOAA.NDBC:SRST2:1,2015-09-11T00:00:00Z,29.6830,-94.0330,1013.1,1111122 
NDBC,ioos:station:NOAA.NDBC:SRST2:1,2015-09-11T03:00:00Z,29.6830,-94.0330,1013.9,1111122 
NDBC,ioos:station:NOAA.NDBC:SRST2:1,2015-09-11T04:00:00Z,29.6830,-94.0330,1013.5,1111122 
NDBC,ioos:station:NOAA.NDBC:SRST2:1,2015-09-11T05:00:00Z,29.6830,-94.0330,1013.2,1111122 
NDBC,ioos:station:NOAA.NDBC:SRST2:1,2015-09-11T09:00:00Z,29.6830,-94.0330,1013.6,1111122 
NDBC,ioos:station:NOAA.NDBC:SRST2:1,2015-09-11T10:00:00Z,29.6830,-94.0330,1012.5,1111122 
NDBC,ioos:station:NOAA.NDBC:SRST2:1,2015-09-11T11:00:00Z,29.6830,-94.0330,1012.2,1111122 
NDBC,ioos:station:NOAA.NDBC:SRST2:1,2015-09-11T12:00:00Z,29.6830,-94.0330,1013.2,1111122 
NDBC,ioos:station:NOAA.NDBC:SRST2:1,2015-09-11T13:00:00Z,29.6830,-94.0330,1013.7,1111122 
NDBC,ioos:station:NOAA.NDBC:SRST2:1,2015-09-11T15:00:00Z,29.6830,-94.0330,1015.1,1111122 
NDBC,ioos:station:NOAA.NDBC:SRST2:1,2015-09-11T16:00:00Z,29.6830,-94.0330,1015.0,1111122 
NDBC,ioos:station:NOAA.NDBC:SRST2:1,2015-09-11T17:00:00Z,29.6830,-94.0330,1015.1,1111122 
NDBC,ioos:station:NOAA.NDBC:SRST2:1,2015-09-11T18:00:00Z,29.6830,-94.0330,1014.6,1111122 
NDBC,ioos:station:NOAA.NDBC:SRST2:1,2015-09-11T19:00:00Z,29.6830,-94.0330,1014.1,1111122 
NDBC,ioos:station:NOAA.NDBC:SRST2:1,2015-09-11T20:00:00Z,29.6830,-94.0330,1014.2,1111122 
NDBC,ioos:station:NOAA.NDBC:SRST2:1,2015-09-11T21:00:00Z,29.6830,-94.0330,1012.8,1111122 
NDBC,ioos:station:NOAA.NDBC:SRST2:1,2015-09-11T22:00:00Z,29.6830,-94.0330,1012.7,1111122 
NDBC,ioos:station:NOAA.NDBC:SRST2:1,2015-09-11T23:00:00Z,29.6830,-94.0330,1012.9,1111122 
NDBC,ioos:station:NOAA.NDBC:SRST2:1,2015-09-12T00:00:00Z,29.6830,-94.0330,1012.4,1111122 
NDBC,ioos:station:NOAA.NDBC:SRST2:1,2015-09-12T01:00:00Z,29.6830,-94.0330,1012.9,1111122 
NDBC,ioos:station:NOAA.NDBC:SRST2:1,2015-09-12T04:00:00Z,29.6830,-94.0330,1014.8,1111122 
NDBC,ioos:station:NOAA.NDBC:SRST2:1,2015-09-12T05:00:00Z,29.6830,-94.0330,1015.0,1111122 
NDBC,ioos:station:NOAA.NDBC:SRST2:1,2015-09-12T06:00:00Z,29.6830,-94.0330,1015.1,1111122 
NDBC,ioos:station:NOAA.NDBC:SRST2:1,2015-09-12T08:00:00Z,29.6830,-94.0330,1013.9,1111122 
NDBC,ioos:station:NOAA.NDBC:SRST2:1,2015-09-12T11:00:00Z,29.6830,-94.0330,1014.4,1111122 
NDBC,ioos:station:NOAA.NDBC:SRST2:1,2015-09-12T12:00:00Z,29.6830,-94.0330,1014.9,1111122 
NDBC,ioos:station:NOAA.NDBC:SRST2:1,2015-09-12T13:00:00Z,29.6830,-94.0330,1015.9,1111122 
NDBC,ioos:station:NOAA.NDBC:SRST2:1,2015-09-12T14:00:00Z,29.6830,-94.0330,1016.3,1111122 
NDBC,ioos:station:NOAA.NDBC:SRST2:1,2015-09-12T15:00:00Z,29.6830,-94.0330,1017.1,1111122 
NDBC,ioos:station:NOAA.NDBC:SRST2:1,2015-09-12T16:00:00Z,29.6830,-94.0330,1017.7,1111122 
NDBC,ioos:station:NOAA.NDBC:SRST2:1,2015-09-12T17:00:00Z,29.6830,-94.0330,1017.7,1111122 
NDBC,ioos:station:NOAA.NDBC:SRST2:1,2015-09-12T18:00:00Z,29.6830,-94.0330,1017.2,1111122 
NDBC,ioos:station:NOAA.NDBC:SRST2:1,2015-09-12T19:00:00Z,29.6830,-94.0330,1016.5,1111122 
NDBC,ioos:station:NOAA.NDBC:SRST2:1,2015-09-12T20:00:00Z,29.6830,-94.0330,1015.7,1111122 
NDBC,ioos:station:NOAA.NDBC:SRST2:1,2015-09-12T21:00:00Z,29.6830,-94.0330,1015.1,1111122 
NDBC,ioos:station:NOAA.NDBC:SRST2:1,2015-09-12T22:00:00Z,29.6830,-94.0330,1014.8,1111122 
NDBC,ioos:station:NOAA.NDBC:SRST2:1,2015-09-13T00:00:00Z,29.6830,-94.0330,1015.2,1111122 
NDBC,ioos:station:NOAA.NDBC:SRST2:1,2015-09-13T01:00:00Z,29.6830,-94.0330,1015.8,1111122 
NDBC,ioos:station:NOAA.NDBC:SRST2:1,2015-09-13T02:00:00Z,29.6830,-94.0330,1016.5,1111122 
NDBC,ioos:station:NOAA.NDBC:SRST2:1,2015-09-13T03:00:00Z,29.6830,-94.0330,1017.1,1111122 
NDBC,ioos:station:NOAA.NDBC:SRST2:1,2015-09-13T04:00:00Z,29.6830,-94.0330,1017.3,1111122 
NDBC,ioos:station:NOAA.NDBC:SRST2:1,2015-09-13T05:00:00Z,29.6830,-94.0330,1017.3,1111122 
NDBC,ioos:station:NOAA.NDBC:SRST2:1,2015-09-13T06:00:00Z,29.6830,-94.0330,1017.1,1111122 
NDBC,ioos:station:NOAA.NDBC:SRST2:1,2015-09-13T09:00:00Z,29.6830,-94.0330,1016.9,1111122 
NDBC,ioos:station:NOAA.NDBC:SRST2:1,2015-09-13T10:00:00Z,29.6830,-94.0330,1017.0,1111122 
NDBC,ioos:station:NOAA.NDBC:SRST2:1,2015-09-13T11:00:00Z,29.6830,-94.0330,1017.5,1111122 
NDBC,ioos:station:NOAA.NDBC:SRST2:1,2015-09-13T13:00:00Z,29.6830,-94.0330,1018.9,1111122 
NDBC,ioos:station:NOAA.NDBC:SRST2:1,2015-09-13T14:00:00Z,29.6830,-94.0330,1019.4,1111122 
NDBC,ioos:station:NOAA.NDBC:SRST2:1,2015-09-13T15:00:00Z,29.6830,-94.0330,1019.8,1111122 
NDBC,ioos:station:NOAA.NDBC:SRST2:1,2015-09-13T16:00:00Z,29.6830,-94.0330,1020.0,1111122 
NDBC,ioos:station:NOAA.NDBC:SRST2:1,2015-09-13T17:00:00Z,29.6830,-94.0330,1019.7,1111122 
NDBC,ioos:station:NOAA.NDBC:SRST2:1,2015-09-13T18:00:00Z,29.6830,-94.0330,1019.6,1111122 
NDBC,ioos:station:NOAA.NDBC:SRST2:1,2015-09-13T19:00:00Z,29.6830,-94.0330,1019.3,1111122 
NDBC,ioos:station:NOAA.NDBC:SRST2:1,2015-09-13T20:00:00Z,29.6830,-94.0330,1018.6,1111122 
NDBC,ioos:station:NOAA.NDBC:SRST2:1,2015-09-13T21:00:00Z,29.6830,-94.0330,1017.8,1111122 
NDBC,ioos:station:NOAA.NDBC:SRST2:1,2015-09-13T22:00:00Z,29.6830,-94.0330,1017.5,1111122 
NDBC,ioos:station:NOAA.NDBC:SRST2:1,2015-09-14T00:00:00Z,29.6830,-94.0330,1017.2,1111122 
NDBC,ioos:station:NOAA.NDBC:SRST2:1,2015-09-14T01:00:00Z,29.6830,-94.0330,1017.2,1111122 
NDBC,ioos:station:NOAA.NDBC:SRST2:1,2015-09-14T02:00:00Z,29.6830,-94.0330,1017.7,1111122 
NDBC,ioos:station:NOAA.NDBC:SRST2:1,2015-09-14T03:00:00Z,29.6830,-94.0330,1018.1,1111122 
NDBC,ioos:station:NOAA.NDBC:SRST2:1,2015-09-14T04:00:00Z,29.6830,-94.0330,1017.9,1111122 
NDBC,ioos:station:NOAA.NDBC:SRST2:1,2015-09-14T05:00:00Z,29.6830,-94.0330,1018.0,1111122 
NDBC,ioos:station:NOAA.NDBC:SRST2:1,2015-09-14T06:00:00Z,29.6830,-94.0330,1017.8,1111122 